SCP
0 0 0 0 0 0 0 0 0 0 0 0 0 0 0 0 0 0 0 0 0 0 0 0 0 0 0 0 0 0 0 0 0 0 0 0 0 0 0 0 0 0 0 0 0 0 0 0 0
0 0 0 0 0 0 0 0 0 0 0 0 0 0 0 0 0 0 0 0 0 0 0 0 0 0 0 0 0 0 0 0 0 0 0 0 0 0 0 0 0 0 0 0 0 0 0 0 0
0 0 0 0 0 0 0 0 0 0 0 0 0 0 0 0 0 0 0 0 0 0 0 0 0 0 0 0 0 0 0 0 0 0 0 0 0 0 0 0 0 0 0 0 0 0 0 0 0
0 0 0 0 0 0 0 0 0 0 0 0 0 0 0 0 0 0 0 0 0 0 0 0 0 0 0 0 0 0 0 0 0 0 0 0 0 0 0 0 0 0 0 0 0 0 0 0 0
0 0 0 0 0 0 0 0 0 0 0 0 0 0 0 0 0 0 0 0 0 0 0 0 0 0 0 0 0 0 0 0 0 0 0 0 0 0 0 0 0 0 0 0 0 0 0 0 0
0 0 0 0 0 0 0 0 0 0 0 0 0 0 0 0 0 0 0 0 0 0 0 0 0 0 0 0 0 0 0 0 0 0 0 0 0 0 0 0 0 0 0 0 0 0 0 0 0
0 0 0 0 0 0 0 0 0 0 0 0 0 0 0 0 0 0 0 0 0 0 0 0 0 0 0 0 0 0 0 0 0 0 0 0 0 0 0 0 0 0 0 0 0 0 0 0 0
0 0 0 0 0 0 0 0 0 0 0 0 0 0 0 0 0 0 0 0 0 0 0 0 0 0 0 0 0 0 0 0 0 0 0 0 0 0 0 0 0 0 0 0 0 0 0 0 0
0 0 0 0 0 0 0 0 0 0 0 0 0 0 0 0 0 0 0 0 0 0 0 0 0 0 0 0 0 0 0 0 0 0 0 0 0 0 0 0 0 0 0 0 0 0 0 0 0
0 0 0 0 0 0 0 0 0 0 0 0 0 0 0 0 0 0 0 0 0 0 0 0 0 0 0 0 0 0 0 0 0 0 0 0 0 0 0 0 0 0 0 0 0 0 0 0 0
0 0 0 0 0 0 0 0 0 0 0 0 0 0 0 0 0 0 0 0 0 0 0 0 0 0 0 0 0 0 0 0 0 0 0 0 0 0 0 0 0 0 0 0 0 0 0 0 0
0 0 0 0 0 0 0 0 0 0 0 0 0 0 0 0 0 0 0 0 0 0 0 0 0 0 0 0 0 0 0 0 0 0 0 0 0 0 0 0 0 0 0 0 0 0 0 0 0
0 0 0 0 0 0 0 0 0 0 0 0 0 0 0 0 0 0 0 0 0 0 0 0 0 0 0 0 0 0 0 0 0 0 0 0 0 0 0 0 0 0 0 0 0 0 0 0 0
0 0 0 0 0 0 0 0 0 0 0 0 0 0 0 0 0 0 0 0 0 0 0 0 0 0 0 0 0 0 0 0 0 0 0 0 0 0 0 0 0 0 0 0 0 0 0 0 0
0 0 0 0 0 0 0 0 0 0 0 0 0 0 0 0 0 0 0 0 0 0 0 0 0 0 0 0 0 0 0 0 0 0 0 0 0 0 0 0 0 0 0 0 0 0 0 0 0
0 0 0 0 0 0 0 0 0 0 0 0 0 0 0 0 0 0 0 0 0 0 0 0 0 0 0 0 0 0 0 0 0 0 0 0 0 0 0 0 0 0 0 0 0 0 0 0 0
0 0 0 0 0 0 0 0 0 0 0 0 0 0 0 0 0 0 0 0 0 0 0 0 0 0 0 0 0 0 0 0 0 0 0 0 0 0 0 0 0 0 0 0 0 0 0 0 0
0 0 0 0 0 0 0 0 0 0 0 0 0 0 0 0 0 0 0 0 0 0 0 0 0 0 0 0 0 0 0 0 0 0 0 0 0 0 0 0 0 0 0 0 0 0 0 0 0
0 0 0 0 0 0 0 0 0 0 0 0 0 0 0 0 0 0 0 0 0 0 0 0 0 0 0 0 0 0 0 0 0 0 0 0 0 0 0 0 0 0 0 0 0 0 0 0 0
0 0 0 0 0 0 0 0 0 0 0 0 0 0 0 0 0 0 0 0 0 0 0 0 0 0 0 0 0 0 0 0 0 0 0 0 0 0 0 0 0 0 0 0 0 0 0 0 0
0 0 0 0 0 0 0 0 0 0 0 0 0 0 0 0 0 0 0 0 0 0 0 0 0 0 0 0 0 0 0 0 0 0 0 0 0 0 0 0 0 0 0 0 0 0 0 0 0
0 0 0 0 0 0 0 0 0 0 0 0 0 0 0 0 0 0 0 0 0 0 0 0 0 0 0 0 0 0 0 0 0 0 0 0 0 0 0 0 0 0 0 0 0 0 0 0 0
0 0 0 0 0 0 0 0 0 0 0 0 0 0 0 0 0 0 0 0 0 0 0 0 0 0 0 0 0 0 0 0 0 0 0 0 0 0 0 0 0 0 0 0 0 0 0 0 0
0 0 0 0 0 0 0 0 0 0 0 0 0 0 0 0 0 0 0 0 0 0 0 0 0 0 0 0 0 0 0 0 0 0 0 0 0 0 0 0 0 0 0 0 0 0 0 0 0
0 0 0 0 0 0 0 0 0 0 0 0 0 0 0 0 0 0 0 0 0 0 0 0 0 0 0 0 0 0 0 0 0 0 0 0 0 0 0 0 0 0 0 0 0 0 0 0 0
0 0 0 0 0 0 0 0 0 0 0 0 0 0 0 0 0 -0 0 0 0 0 0 0 0 0 0 0 0 0 0 0 0 0 0 0 0 0 0 0 0 0 0 0 0 0 0 0 0
0 0 0 0 0 0 0 0 0 0 0 0 0 0 0 0 0 0 0 0 0 0 0 0 0 0 0 0 0 0 0 0 0 0 0 0 0 0 0 0 0 0 0 0 0 0 0 0 0
0 0 0 0 0 0 0 0 0 0 0 0 0 0 0 0 0 0 0 0 0 0 0 0 0 0 0 0 0 0 0 0 0 0 0 0 0 0 0 0 0 0 0 0 0 0 0 0 0
0 0 0 0 0 0 0 0 0 0 0 0 0 0 0 0 0 0 0 0 0 0 0 0 0 0 0 0 0 0 0 0 0 0 0 0 0 0 0 0 0 0 0 0 0 0 0 0 0
0 0 0 0 0 0 0 0 0 0 0 0 0 0 0 0 0 0 0 0 0 0 0 0 0 0 0 0 0 0 0 0 0 0 0 0 0 0 0 0 0 0 0 0 0 0 0 0 0
Wind_Speed
8 10 8 2 3 5 8 1 2 4 4 4 4 2 4 5 3 4 6 10 15 16 16 18 20 18 16 15 14 13 12 11 11 10 10 10 11 11 11 12 13 13 13 14 15 15 16 16 17
9 8 4 3 4 6 5 2 4 8 7 5 2 1 3 2 7 10 7 10 16 16 16 15 20 19 17 16 15 13 12 12 11 10 10 10 10 10 11 11 11 12 12 13 13 14 14 15 16
9 8 4 4 7 8 3 4 8 8 5 2 3 2 3 5 10 10 8 13 14 14 15 16 22 20 18 17 15 14 13 12 11 11 10 9 9 9 10 10 10 10 11 11 12 12 13 14 14
5 3 4 5 9 8 2 3 8 7 4 2 3 3 3 6 6 10 12 13 14 13 14 16 22 20 19 18 16 15 14 13 12 11 10 9 9 9 9 9 9 9 9 10 11 11 12 12 13
3 4 5 7 11 10 3 4 5 2 5 8 5 4 6 5 9 14 12 12 13 12 13 16 22 21 19 18 17 16 14 13 12 11 10 9 9 8 8 8 8 8 8 9 9 10 10 11 11
4 4 6 8 10 6 3 3 5 3 5 5 7 4 4 6 10 13 11 10 11 11 14 16 21 21 20 19 18 16 15 14 13 12 11 10 9 8 8 7 7 6 7 7 7 8 8 9 10
3 4 7 10 10 8 6 5 1 2 5 4 8 4 6 7 8 12 10 9 9 10 12 13 12 15 19 19 18 17 16 15 14 12 11 10 9 8 7 7 6 5 5 5 5 6 6 7 8
3 4 8 10 10 8 4 3 2 3 5 2 6 4 3 10 10 10 10 8 8 9 10 13 11 10 10 11 18 18 17 16 15 13 12 11 9 8 7 6 6 5 4 3 3 4 4 4 5
2 4 7 9 8 7 4 1 1 3 4 4 3 1 6 15 13 11 9 8 9 10 9 12 13 11 10 9 14 15 16 16 15 12 13 10 5 5 5 6 7 5 4 3 2 1 2 2 2
4 4 9 9 7 7 7 7 6 3 6 7 6 6 9 13 12 13 13 14 14 13 12 10 13 13 12 11 9 7 7 8 7 6 7 5 5 5 7 9 8 7 5 4 4 3 3 3 1
6 8 9 9 6 5 6 8 8 8 10 10 10 13 15 14 14 15 16 16 15 13 12 11 10 12 12 8 8 6 5 6 7 9 9 6 5 4 4 4 4 4 6 4 5 4 3 2 1
8 9 10 9 4 2 5 7 8 10 12 9 8 5 18 18 18 19 18 16 14 12 14 12 11 9 10 8 7 7 6 7 7 8 11 7 4 4 4 4 5 5 4 4 3 3 4 3 2
8 9 10 6 4 5 8 11 11 15 14 11 10 7 16 18 17 16 15 13 14 15 15 13 12 11 9 8 6 7 6 7 7 6 8 8 5 5 5 4 4 5 4 5 4 4 4 3 3
7 8 10 11 9 7 9 11 8 15 11 11 11 10 13 17 16 14 15 15 16 16 16 14 14 12 10 9 8 6 6 6 6 6 7 9 6 6 6 5 5 5 5 5 5 5 4 3 3
4 7 12 13 11 4 2 9 10 17 12 11 10 10 12 14 15 16 16 16 15 15 15 16 14 13 12 11 9 7 6 7 6 7 8 9 8 8 6 6 5 5 5 5 4 4 3 3 3
6 6 7 4 6 6 1 11 8 8 7 9 10 10 12 15 17 16 15 14 13 12 14 16 14 14 13 11 9 7 7 7 7 7 8 10 10 9 7 6 6 6 5 5 5 4 4 4 4
6 6 8 6 4 5 7 13 13 9 12 12 10 9 10 12 16 17 16 15 14 13 13 14 14 14 13 11 9 8 7 8 7 7 7 10 11 10 8 7 6 7 6 5 6 5 5 5 5
8 9 9 10 6 5 8 15 19 12 10 9 7 6 6 7 10 14 16 15 14 13 12 13 13 13 11 9 7 7 8 7 7 8 9 10 11 12 9 7 8 8 6 6 6 6 6 5 4
7 8 12 13 7 4 9 16 19 14 6 5 5 5 4 3 3 5 12 12 12 12 12 13 14 13 11 10 10 11 10 8 7 8 10 12 12 13 11 9 9 9 9 9 9 7 7 6 4
7 10 12 10 6 9 12 15 16 5 2 3 5 6 7 7 5 3 6 9 10 11 11 12 13 13 12 10 9 7 6 6 6 6 9 12 13 13 13 12 10 10 9 10 11 8 6 6 7
9 8 8 8 10 9 6 9 3 5 7 7 7 7 7 7 6 5 3 6 8 9 11 10 12 13 13 10 6 5 5 5 7 9 10 11 13 14 13 14 12 11 11 11 13 11 12 9 8
8 3 5 7 7 6 5 6 7 3 7 8 7 7 7 6 5 4 2 3 6 8 8 10 10 11 11 11 10 11 11 13 13 8 8 10 12 13 14 14 14 12 11 12 13 13 10 9 7
4 5 6 6 5 6 5 4 8 2 6 6 6 6 6 6 5 4 2 1 3 5 7 8 9 9 10 11 12 11 12 11 6 7 9 11 11 13 14 14 14 14 12 12 12 13 13 11 10
5 8 10 4 3 5 3 3 6 1 5 5 6 6 6 6 6 5 4 2 0 2 4 6 7 8 9 11 12 13 14 10 9 10 10 9 9 10 14 14 14 14 12 13 12 12 14 13 12
4 5 4 1 3 4 2 2 7 0 6 6 5 5 6 6 6 6 6 4 2 1 3 5 7 7 8 9 11 12 13 12 13 11 10 10 9 10 13 15 15 13 13 12 11 12 13 14 13
3 2 3 4 4 5 3 5 6 1 5 6 6 5 5 6 5 5 5 5 3 1 1 4 6 7 8 9 10 10 11 10 10 11 10 10 10 10 10 15 15 15 14 14 12 12 12 11 13
3 2 2 2 6 5 6 5 4 1 4 5 4 5 5 5 5 5 5 4 4 3 1 2 4 5 7 8 9 9 10 10 11 10 10 10 9 8 10 13 15 15 15 15 14 13 14 12 13
3 5 2 3 4 5 6 5 2 1 1 3 4 5 4 5 5 5 4 4 3 2 1 1 2 4 5 7 7 7 9 10 10 10 12 11 11 10 10 11 13 14 15 15 15 13 12 14 13
5 3 4 4 5 3 5 6 3 5 3 4 4 5 5 5 4 4 3 3 3 3 2 2 2 3 3 4 5 6 7 8 9 9 11 11 11 11 11 12 12 14 15 15 15 16 14 16 14
1 3 4 4 6 5 6 8 5 2 4 5 4 4 4 4 3 3 4 4 4 4 4 3 2 2 3 3 4 6 7 7 8 9 10 10 11 11 11 11 12 14 15 15 17 17 17 17 17
Wind_Direction
259 244 233 244 247 245 258 195 80 101 96 68 52 344 328 350 24 128 174 163 136 143 149 156 155 154 151 148 143 139 134 127 119 112 105 99 93 87 82 77 73 68 64 60 57 55 54 52 50
271 243 241 242 253 262 265 114 89 68 76 89 92 285 272 94 102 123 163 151 143 147 149 157 158 156 155 153 150 146 141 135 128 121 113 106 100 93 87 81 77 72 67 63 58 55 53 52 49
269 260 247 236 249 260 297 64 84 87 96 143 179 217 294 89 126 145 157 142 147 148 152 160 160 159 159 158 156 152 148 142 137 130 123 115 108 100 93 87 81 75 70 66 61 55 52 50 48
261 237 241 248 262 267 290 66 96 121 136 211 253 198 147 89 119 138 141 148 151 151 150 157 162 163 163 162 160 158 155 150 145 140 133 125 116 108 100 93 86 79 73 67 62 55 50 48 45
232 251 246 255 261 268 258 111 106 196 180 182 206 259 132 101 103 124 144 159 156 154 148 158 166 166 167 166 165 163 161 157 153 149 143 135 127 120 112 103 94 84 76 69 63 56 48 44 41
261 258 265 267 273 287 321 111 139 216 265 195 171 238 126 133 131 139 155 165 159 154 148 159 170 170 170 171 170 169 167 164 161 158 152 147 141 134 128 119 107 94 83 73 64 55 45 39 36
303 296 286 292 299 305 321 78 81 300 284 252 156 200 129 168 150 144 158 168 161 156 151 157 171 172 174 175 175 174 172 170 167 165 161 156 153 149 142 135 124 109 95 81 67 53 42 32 30
315 297 286 284 287 298 358 76 37 344 300 326 145 214 153 165 144 143 156 174 167 161 158 158 170 171 172 175 180 178 177 176 174 171 167 165 164 160 158 152 146 135 120 102 78 50 30 21 19
275 263 269 277 295 315 1 305 231 127 293 285 200 90 88 127 139 148 159 182 178 173 171 164 172 173 172 174 184 181 180 180 177 173 174 169 166 167 175 168 164 162 158 150 127 39 336 316 313
216 255 268 286 310 322 326 315 301 219 227 242 217 132 129 140 156 169 177 186 187 184 181 176 176 174 174 180 175 171 175 173 166 158 165 173 194 181 171 168 176 182 188 197 203 234 257 280 324
244 252 271 289 313 334 310 295 282 263 254 239 228 186 162 167 175 186 191 192 192 185 182 184 184 174 174 173 165 172 173 167 175 171 168 185 189 154 151 151 176 190 202 212 211 232 228 238 176
256 270 283 289 324 323 285 282 280 255 248 249 267 221 166 178 188 194 197 196 190 186 188 185 185 176 173 169 167 172 175 172 179 180 171 177 175 168 172 175 175 184 191 197 199 213 210 217 228
276 271 275 284 286 262 266 268 275 266 262 259 251 227 174 189 198 202 202 197 190 191 189 189 185 181 174 169 173 176 175 171 173 175 175 172 173 179 179 185 182 185 185 181 202 214 210 209 227
304 319 303 284 262 250 256 267 263 263 252 247 238 223 190 195 200 202 204 203 197 193 189 188 189 184 178 178 178 179 175 169 172 174 181 178 176 180 181 185 186 188 187 186 193 207 203 209 211
305 288 278 256 233 213 293 275 238 251 248 248 239 218 203 200 199 206 206 205 200 192 188 187 189 187 183 184 183 182 180 175 180 178 184 186 185 183 181 185 186 190 187 187 192 212 201 213 216
238 254 265 252 163 127 143 269 260 299 294 257 240 225 207 204 204 207 206 203 200 190 186 186 189 191 189 187 187 186 186 185 185 182 184 190 192 187 182 186 190 186 182 182 186 200 196 211 214
231 257 294 340 159 176 204 267 283 285 281 272 257 243 224 212 206 205 201 197 194 192 184 184 185 189 190 187 186 191 192 194 189 186 187 191 193 191 187 189 191 184 183 185 195 196 194 204 211
327 329 316 312 293 260 257 278 295 300 288 283 280 269 249 233 214 199 194 190 186 187 183 182 183 186 186 185 187 194 206 203 195 192 192 190 193 193 191 193 193 186 185 189 194 196 195 200 200
327 304 296 293 304 330 287 288 294 301 310 334 340 340 334 302 289 187 178 176 173 178 182 183 185 187 186 190 195 199 206 205 202 198 195 194 193 194 195 198 197 194 194 195 192 188 196 202 182
286 284 287 294 340 321 287 288 285 277 53 45 30 25 19 11 7 40 140 158 170 178 185 187 188 189 193 198 198 198 198 204 207 205 204 199 197 196 200 201 200 199 197 197 196 190 188 195 183
275 279 302 322 326 279 287 303 306 105 84 73 62 54 47 38 28 27 104 157 171 183 189 193 192 191 193 190 181 187 194 204 210 210 211 207 202 202 203 204 202 202 200 204 201 194 191 198 196
286 350 336 319 322 308 328 304 293 129 91 75 64 55 50 44 47 40 48 161 186 195 190 193 192 193 190 187 194 196 204 214 215 211 210 209 209 208 207 205 205 206 206 207 205 202 197 187 195
299 336 284 281 289 286 254 240 279 138 93 86 77 68 62 49 49 44 44 205 204 193 188 191 194 198 193 195 200 207 218 224 220 213 214 213 213 214 212 209 208 211 211 210 207 204 201 201 199
298 290 262 223 266 263 217 213 284 56 101 96 81 69 60 47 41 34 31 29 261 183 182 186 197 208 202 201 205 211 221 222 221 221 220 217 215 215 215 212 212 214 214 213 210 208 207 206 206
239 302 321 257 223 234 121 242 255 233 107 105 94 75 60 51 43 29 23 12 356 209 197 193 202 215 212 209 213 217 221 221 227 227 225 222 222 219 215 213 216 216 216 213 209 212 213 210 208
309 321 317 304 302 320 288 244 256 109 125 127 121 100 71 56 47 39 26 14 7 4 197 199 210 220 218 217 221 223 222 223 231 231 230 230 229 224 211 210 214 215 213 214 211 215 216 214 214
283 228 61 320 284 267 253 249 261 143 132 136 120 91 72 60 53 42 32 24 18 18 5 215 219 224 222 222 224 226 226 227 231 231 232 237 238 229 214 210 211 213 212 213 211 218 217 215 215
285 327 307 245 273 284 277 269 255 50 23 65 58 59 61 61 50 38 25 14 10 14 352 259 227 231 229 224 224 229 229 230 231 230 234 235 236 231 222 215 212 212 213 212 214 218 216 216 217
176 205 224 257 271 274 286 272 337 342 28 52 47 53 60 57 46 29 7 356 1 359 343 314 265 249 248 242 239 240 240 236 234 235 237 237 236 232 229 223 217 215 215 213 216 219 214 218 218
149 241 240 246 262 264 282 276 292 327 72 61 53 54 73 66 40 12 355 352 352 344 331 321 302 284 266 256 255 253 250 245 242 243 243 238 237 234 232 228 225 221 218 214 216 219 216 216 217